SL-8 R/B

Satellite information

Favourite Embed

Satellite Type and Status

ROCKET BODYIN ORBIT

Key statistics

Satellite SL-8 R/B at a glance.

Uptime

12444

Days in orbit

Revolutions

≈ 14.4

Per day

Orbit

LEO

Low Earth Orbit

Inclination

74.0

Latest

Satellite identification and parameters

Extended collection of information and parameters for SL-8 R/B.

Object identification

Identified? True

Debris? False

Object name: SL-8 R/B

International designator: 1991-041B

Object number (NORAD): 21419

Object ID (CCSDS): 21419

Country: COMMONWEALTH OF INDEPENDENT STATES (CIS)

Current information (Y/N): Y

RCS size: LARGE

Orbital parameters

Period: 100.343 minutes

Inclination: 74.0408 deg

SMA: 7152.924 km

Apoapsis: 804.197 km

Periapsis: 745.381 km

RAAN: 318.4768 deg

Eccentricy: 0.0041113

Argument of periapsis: 248.451 deg

Mean anomaly: 111.2259 deg

Mean motion: 14.35084167 rev/day

Mean motion (dot): 0.00000126 rev/day2

B* drag term: 0.000053 1/REarth

Two-line elements (TLE)

Creation date: July 5, 2025, 11:06 p.m.

Reference frame: TEME

Reference center: EARTH

Epoch: July 5, 2025, 7:03 p.m. UTC

TLE line 0: 0 SL-8 R/B

TLE line 1: 1 21419U 91041B 25186.79375132 .00000126 00000-0 53000-4 0 9992

TLE line 2: 2 21419 74.0408 318.4768 0041113 248.4510 111.2259 14.35084167782022

Live tracking on map

Real-time ground track for satellite SL-8 R/B.

In-orbit conjunctions

A list of the most updated potential collisions computed for object SL-8 R/B.

Target Orbit TCA Probability of collision Miss distance Type
CZ-6A DEB SSO 2025-05-04 12:33:10 0.0001032295 299.0 (m) DEBRIS
CZ-6A DEB SSO 2025-03-18 21:20:56 0.0001410038 311.0 (m) DEBRIS
CZ-6A DEB LEO 2025-03-08 00:23:42 0.0001609396 252.0 (m) DEBRIS
FENGYUN 1C DEB SSO 2025-03-06 18:35:27 0.0004786913 167.0 (m) DEBRIS
CZ-6A DEB LEO 2025-01-25 20:14:33 0.0002703313 197.0 (m) DEBRIS

Associated space launch

Military communications satellite

SL-8 R/B was lifted into orbit during the mission ‘Kosmos-3M | Strela-2M 49’, on board a Kosmos-3M space rocket.

The launch took place on June 11, 1991, 5:41 a.m. from 133/3 (133L).

For more information about the launch, click the button.

Launch to space Kosmos-3M | Strela-2M 49
Kosmos-3M | Strela-2M 49

Agency: N/A

Status: Launch Successful

Launch date: June 11, 1991, 5:41 a.m. UTC

Rocket: Kosmos-3M

Launch pad: 133/3 (133L)

Location: Plesetsk Cosmodrome, Russian Federation

...

Latest news about this satellite

There are no fresh news available about this satellite. Check back as we update our databases every day.


Newsletter sign-up

Weekly statistics, charts and insights to help you stay on top of the space industry.